Location: Newark
(31.5350°N, 35.0986°E)
Time: 04:44:44
(UTC+00:00)

Transit 4A - Pass Details

Date: 23 October 2019
Orbit: 868 x 976 km, 66.8° (Epoch: 13 November)

Event Time Altitude Azimuth Distance (km) Brightness Sun altitude
Rises 23:20:32 0° 153° (SSE) 3,658 - -56.5°
Reaches altitude 10° 23:24:54 10° 125° (SE) 2,710 - -55.7°
Maximum altitude 23:27:17 12° 102° (ESE) 2,541 - -55.3°
Drops below altitude 10° 23:29:39 10° 80° (E) 2,702 - -54.8°
Exits shadow 23:31:51 - 63° (ENE) 3,099 11.1 -54.4°
Sets 23:33:58 0° 52° (NE) 3,634 11.5 -54.0°
